Regional Weather Roundup
Issued by NWS

Home | Current Version | Previous Version | Graphics & Text | Print | Product List | Glossary On
Versions: 1 2 3 4 5 6 7 8 9 10 11 12 13 14 15 16 17 18 19 20 21 22 23 24 25 26 27
000
ASUS45 KBOU 221507
RWRCO

WEATHER ROUNDUP FOR COLORADO
NATIONAL WEATHER SERVICE DENVER/BOULDER CO
800 AM MST WED FEB 22 2017

NOTE: "FAIR" INDICATES FEW OR NO CLOUDS BELOW 12000 FEET WITH NO
SIGNIFICANT WEATHER AND/OR OBSTRUCTIONS TO VISIBILITY.

COZ001>005-013-030-031-221600-
...NORTHWEST COLORADO...

CITY           SKY/WX    TMP DP  RH WIND       PRES   REMARKS
CRAIG          LGT SNOW  31  27  85 SW6       29.99R FOG     WCI  25
HAYDEN         PTSUNNY   30  23  74 CALM      29.97S
MEEKER         CLOUDY    45  28  51 SW13G25   29.93S
MOUNT WERNER   NOT AVBL
STEAMBOAT SPGS CLOUDY    28  26  93 CALM      29.96S
WALDEN         NOT AVBL
$$

COZ006>008-011-221600-
...WEST CENTRAL VALLEYS...

CITY           SKY/WX    TMP DP  RH WIND       PRES   REMARKS
GRAND JUNCTION PTSUNNY   43  36  76 S5        29.95S
MONTROSE       FAIR      47  27  45 VRB5      30.01S
EAGLE          MOSUNNY   45  25  45 W16G28    29.97S
RIFLE          PTSUNNY   46  31  55 W7        29.95R
DELTA          FAIR      47  31  54 CALM      29.99S
NUCLA          FAIR      45  32  61 SW3       30.06R
$$

COZ017>023-064>068-221600-
...SOUTHWEST COLORADO...

CITY           SKY/WX    TMP DP  RH WIND       PRES   REMARKS
DURANGO        PTSUNNY   37  33  85 E3        30.13R
CORTEZ         FAIR      44  37  76 SW6       30.08F
PAGOSA SPRINGS CLOUDY    33  33 100 CALM      30.15R
TELLURIDE      FAIR      40  18  41 SW17G24   30.10S
WOLF CREEK PAS FOG       23  23 100 SW25G38   30.19S VSB 1/2 WCI   7
$$

COZ009-010-012-014-032>034-037-058>063-221600-
...CENTRAL COLORADO...

CITY           SKY/WX    TMP DP  RH WIND       PRES   REMARKS
ASPEN          PTSUNNY   37  20  50 N7        29.98R
BUENA VISTA    FAIR      42  13  30 W16G23    29.99S
COPPER MTN     LGT SNOW  27  12  54 W25G38    30.03S WCI  11
BERTHOUD PASS  FAIR      19   9  63 W36G56    29.96S WCI  -1
COTTONWOOD PAS FAIR      36  10  35 SW17G32   30.03S
GUNNISON       FAIR      32  20  61 NE10      30.04R WCI  24
KREMMLING      CLOUDY    45  21  39 SW16G30   29.95R
LEADVILLE      FAIR      29   9  43 CALM      30.01R
MONARCH PASS   FAIR      21  14  73 W36G51    30.17S WCI   2
SALIDA         FAIR      45  15  30 SW10G17   30.09R
SUNLIGHT       NOT AVBL
WILKERSON PASS FAIR      27  10  50 SW15G29   30.05S WCI  15
$$

COZ069>075-221600-
...SAN LUIS VALLEY/SANGRE DE CRISTO MOUNTAINS...

CITY           SKY/WX    TMP DP  RH WIND       PRES   REMARKS
ALAMOSA        FAIR      34  25  69 S6        30.08R WCI  29
LA VETA PASS   FAIR      34  23  64 N16G30    30.14S WCI  23
SAGUACHE       FAIR      34  25  69 NW3       30.06S
$$

COZ035-036-038>040-221600-
...NORTHERN COLORADO FRONT RANGE...

CITY           SKY/WX    TMP DP  RH WIND       PRES   REMARKS
DENVER INTL AP FAIR      39  24  55 E13       29.89R
DMNS CITY PARK   N/A     41  24  50 NE15G26   29.89R
AURORA         MOSUNNY   39  25  56 E10       29.90R
FRONT RANGE AP MOSUNNY   39  27  60 E8        29.91
ERIE MUNI ARPT FAIR      39  26  58 CALM      29.90R
BOULDER MUN AP FAIR      41  27  56 E3        29.89R
CENTENNIAL     FAIR      51  12  21 SW13      29.88R
BROOMFIELD     MOSUNNY   39  27  60 E8        29.89
FORT COLLINS   FAIR      41  26  55 N20       29.86R
LONGMONT       FAIR      42  27  55 S6        29.91R
$$

COZ041-046-047-076>085-087-088-221600-
...PIKES PEAK/PALMER DIVIDE AND SOUTHERN FOOTHILLS...

CITY           SKY/WX    TMP DP  RH WIND       PRES   REMARKS
COLO. SPRINGS  FAIR      54   6  14 W28G37    29.91F
A. F. ACADEMY  FAIR      51   4  14 W24G33    29.89F
SCHRIEVER AFB  FAIR      52   9  18 W30G36    29.91S
ELLICOTT       FAIR     N/A N/A N/A W14       29.90S
FALCON         FAIR      49   4  15 W12G23    29.93F
FORT CARSON    FAIR      54  13  19 SW31      29.87F
LIMON          FAIR      43  27  53 NE8       29.92R
MONUMENT HILL  FAIR      45  10  24 W21       29.93R
TRINIDAD       FAIR      56  17  21 W12       29.95S
$$

COZ042>045-048>051-090-091-221600-
...NORTHEAST COLORADO...

CITY           SKY/WX    TMP DP  RH WIND       PRES   REMARKS
GREELEY ARPT   FAIR      43  23  45 N26G32    29.86R
AKRON          FAIR      41  26  55 W6        29.89R
BURLINGTON     FAIR      45  30  55 NW12      29.90R
WRAY           NOT AVBL
STERLING       FAIR      45  25  45 W6        29.86R
HOLYOKE        FAIR      41  30  65 W9        29.87R
FORT MORGAN    FAIR      44  20  37 W3        29.91R
$$

COZ086-089-092>099-221600-
...SOUTHEAST COLORADO...

CITY           SKY/WX    TMP DP  RH WIND       PRES   REMARKS
PUEBLO         FAIR      53  23  31 W13       29.88S
LA JUNTA       FAIR      58  27  30 W15       29.86R
LAMAR          FAIR      43  22  43 CALM      29.87R
SPRINGFIELD      N/A     54  28  36 SW10      29.89R
$$




USA.gov is the U.S. government's official web portal to all federal, state and local government web resources and services.